sat.trackr.live / text

‹ back to catalog

KUIPER-00639

NORAD 69786 · 2026-151Z

PAYLOAD ACTIVE UNKNOWN

§ Identity

Operator
Country
US
Launch date
2026-07-02
Launch site
AFETR
Launch vehicle
Mass (kg)
RCS (m²)

External: N2YO · Heavens-Above · Gunter

§ Orbital elements

Epoch: 2026-09-20T04:00:03.000096Z

Period
97.04 min
Inclination
51.9013°
Eccentricity
0.0009504
Mean motion
14.83949961 rev/d
Perigee alt
610.2 km
Apogee alt
623.5 km
Semi-major
6,995.0 km
B*
-2.4410e-3
RAAN
223.2218°
Arg perigee
41.5908°
Mean anomaly
129.9984°
Rev number
565

§ Raw data

KUIPER-006391 69786U 26151Z   26263.16670139 -.00020680  00000+0 -24410-2 0  99932 69786  51.9013 223.2218 0009504  41.5908 129.9984 14.83949961  5654

JSON: /api/v1/satellites/69786 · /tle

For live sub-satellite position, see the globe view (requires WebGL).

§ Visibility from observer

Set your observer location to see the next 7 days of passes ≥ 10°. The values pass through the URL so the page stays shareable.

No JS? Fill the form by hand. The geolocation button needs JavaScript.